Weather Roundup
Issued by NWS Chicago, IL

Home | Current Version | Previous Version | Text Only | Print | Product List | Glossary On
Versions: 1 2 3 4 5 6 7 8 9 10 11 12 13 14 15 16 17 18 19 20 21 22 23 24 25 26 27 28 29 30 31 32 33 34 35 36 37 38 39 40 41 42 43 44 45 46 47 48 49 50
000
NZUS59 KLOT 290909
HRRLOT

CHICAGO AREA WEATHER ROUNDUP
NATIONAL WEATHER SERVICE CHICAGO/ROMEOVILLE IL
400 AM CDT THU JUN 29 2017

NOTE: "FAIR" INDICATES FEW OR NO CLOUDS BELOW 12,000 FEET WITH NO
SIGNIFICANT WEATHER AND/OR OBSTRUCTIONS TO VISIBILITY.

* THESE STATIONS ARE NOT UNDER NWS QUALITY CONTROL. THEY ALSO MAY NOT
  REPORT WEATHER SUCH AS PRECIPITATION OR FOG.

ILZ005-006-012>014-019>023-291000-
NORTHEAST ILLINOIS

CITY           SKY/WX    TMP DP  RH WIND       PRES   REMARKS
OHARE          CLOUDY    68  64  87 S9        29.72F
MIDWAY         CLOUDY    73  64  73 S8        29.73F
AURORA         CLOUDY    71  64  78 S5        29.74S
LANSING*       MOCLDY    74  62  66 SW10      29.77F
JOLIET*        CLOUDY    75  66  72 CALM      29.75F
WAUKEGAN       CLOUDY    63  63 100 S6        29.69F
DUPAGE AIRPORT CLOUDY    69  66  90 S8        29.73S
WHEELING       CLOUDY    67  66  97 S9        29.72F
MORRIS*        CLOUDY    71  64  76 S5        29.75R
LEWIS AIRPORT* CLOUDY    71  62  73 SW6       29.75F
$$

WIZ051-052-058>065-066-070>072-291000-
SOUTHEAST WISCONSIN

CITY           SKY/WX    TMP DP  RH WIND       PRES   REMARKS
MILWAUKEE      MOCLDY    66  63  90 S9        29.68S
KENOSHA*       CLOUDY    67  63  87 S8        29.70F
RACINE*        MOCLDY    67  62  84 S14       29.71S
WAUKESHA       CLOUDY    63  61  94 S6        29.70S
WEST BEND      CLOUDY    64  63  94 SW9       29.67F
$$

INZ001>003-010>013-019-020-291000-
NORTHWEST INDIANA

CITY           SKY/WX    TMP DP  RH WIND       PRES   REMARKS
GARY*          CLOUDY    76  62  61 S5        29.78F
MICHIGAN CITY* NOT AVBL
RENSSELAER*    NOT AVBL
VALPARAISO     CLOUDY    75  65  70 S10       29.80F
$$

LMZ740>746-291000-
SOUTHERN LAKE MICHIGAN

STATION/POSITION TIME  SKY/WX   TEMP WIND        PRES    VSBY
                                AIR  DIR/SP/G
                 (UTC)          (F)  (DEG/KT/KT) (MB)    (MI)
HARRISON CRIB    0840            69  160/ 15/ 17   N/A
BURNHAM HARBOR   0900            70                N/A
CALUMET HARBOR   0848            74  160/  8/ 10 1006.9F
BURNS HARBOR     0840            74  180/ 11/ 16 1008.5F
MICHIGAN CITY    0840            73  170/ 12/ 14   N/A
$$

ABBREVIATIONS USED IN REMARKS
   TC - TEMPERATURE IN CELSIUS
  WCI - WIND CHILL INDEX
   HX - HEAT INDEX
  VSB - VISIBILITY
$$




USA.gov is the U.S. government's official web portal to all federal, state and local government web resources and services.